Content
SEND FEEDBACK

Daily
Averages
Monthly
Summary
Philippines

QUEZON CITY, PHILIPPINES


Home > Asia > Philippines
Elevation: 151 feet     Latitude: 14 39N     Longitude: 121 03E

WEATHER
 
SELECT A DAY
Number of Records: 172,513;   Date Range: 7/1/96 - 7/29/14
 
SHARE

PRINT THIS DATA

[ ← Previous Day ]
WEATHER ALMANAC - MARCH 17, 2013
[ Next Day → ]
[ °C ]   °F
Weather ElementAverageHighLow
Temperature83.7 °F91.4 °F (3:00 pm)77 °F (6:00 am)
Dewpoint70.6 °F73.4 °F (8:00 pm)66.2 °F (2:00 pm)
Humidity63.7 %83 % (7:00 am)45 % (5:00 pm)
Barometer29.89 in29.96 in (11:00 am)29.80 in (4:00 pm)
Wind Speed13.3 mph125.3 mph (8:00 pm)
Weather ElementAverage
Visibility6.2 mi
Wind DirectionESE (116.7 °)

Weather ElementTotal
Precipitation---
Cooling Degree Days19.2 (Base 65)
Growing Degree Days34.2 (Base 50)
Averaged from 30 records on March 17, 2013
WEATHER CONDITIONS BREAKOUT
WIND DIRECTION BREAKOUT
WEATHER BY HOUR - MARCH 17, 2013
[ °C ]   °F
Local TimeTemperatureDewpointHumidityBarometerVisibilityWind DirectionWind SpeedGust SpeedPrecipitationEventsConditions
1:00 AM80.6 °F71.6 °F74 %29.95 in6.2 miESE (110°)6.9 mphPartly Cloudy
2:00 AM80.0 °F71.0 °F67 %29.93 in6.0 miESE (120°)6.7 mphHaze
2:00 AM80.6 °F71.6 °F74 %29.92 in6.2 miESE (120°)6.9 mphPartly Cloudy
3:00 AM80.6 °F71.6 °F74 %29.89 in6.2 miESE (110°)8.1 mphPartly Cloudy
4:00 AM78.8 °F69.8 °F74 %29.89 in6.2 miEast (100°)6.9 mphPartly Cloudy
5:00 AM79.0 °F70.0 °F68 %29.90 in6.0 miESE (110°)8.9 mphHaze
5:00 AM78.8 °F69.8 °F74 %29.89 in6.2 miESE (110°)8.1 mphPartly Cloudy
6:00 AM77.0 °F69.8 °F78 %29.92 in6.2 miEast (80°)4.6 mphPartly Cloudy
7:00 AM77.0 °F71.6 °F83 %29.92 in6.2 miENE (70°)8.1 mphPartly Cloudy
8:00 AM82.0 °F70.0 °F59 %29.95 in6.0 miEast (100°)8.9 mphHaze
8:00 AM82.4 °F69.8 °F66 %29.95 in6.2 miEast (100°)9.2 mphPartly Cloudy
9:00 AM84.2 °F71.6 °F66 %29.95 in6.2 miEast (100°)9.2 mphPartly Cloudy
10:00 AM86.0 °F71.6 °F62 %29.95 in6.2 miESE (120°)9.2 mphPartly Cloudy
11:00 AM88.0 °F70.0 °F46 %29.96 in6.0 miSE (130°)11.2 mphHaze
11:00 AM87.8 °F69.8 °F55 %29.95 in6.2 miSE (130°)10.4 mphPartly Cloudy
12:00 PM89.6 °F69.8 °F52 %29.92 in6.2 miSE (130°)10.4 mphPartly Cloudy
1:00 PM89.6 °F68.0 °F49 %29.86 in6.2 miSE (130°)11.5 mphPartly Cloudy
2:00 PM89.6 °F66.2 °F46 %29.83 in6.2 miSE (130°)12.7 mphPartly Cloudy
3:00 PM91.4 °F68.0 °F46 %29.83 in6.2 miSE (130°)13.8 mphPartly Cloudy
4:00 PM89.6 °F68.0 °F49 %29.80 in6.2 miESE (120°)13.8 mphPartly Cloudy
5:00 PM89.0 °F71.0 °F45 %29.83 in6.0 miESE (120°)8.9 mphScattered Clouds
5:00 PM89.6 °F69.8 °F52 %29.83 in6.2 miESE (120°)9.2 mphPartly Cloudy
6:00 PM86.0 °F69.8 °F58 %29.83 in6.2 miESE (120°)9.2 mphPartly Cloudy
7:00 PM84.2 °F71.6 °F66 %29.83 in6.2 miESE (120°)9.2 mphPartly Cloudy
8:00 PM83.0 °F73.0 °F66 %29.87 in6.0 miSSW (200°)125.3 mphScattered Clouds
8:00 PM82.4 °F73.4 °F74 %29.86 in6.2 miESE (120°)11.5 mphPartly Cloudy
9:00 PM82.4 °F73.4 °F74 %29.86 in6.2 miESE (110°)11.5 mphPartly Cloudy
10:00 PM80.6 °F71.6 °F74 %29.89 in6.2 miESE (120°)9.2 mphPartly Cloudy
11:00 PM81.0 °F72.0 °F67 %29.88 in6.0 miESE (110°)8.9 mphScattered Clouds
11:00 PM80.6 °F71.6 °F74 %29.86 in6.2 miESE (110°)9.2 mph
Hourly data recorded from RPLL, located miles away from Quezon City, Philippines







STORIES FROM OUR PARTNERS